Flag for Italy

Past Weather in San Michele al Tagliamento, Italy — Yesterday and Last 2 Weeks

Now
50 °F

Light fog.


Feels Like: 50 °F
Forecast: 66 / 55 °F
Wind: 2 mph from North

Location: Ronchi Dei Legionari Airport

Current Time: Oct 17, 2019 at 3:00:36 am

Latest Report: Oct 17, 2019 at 2:20 am


Visibility: 5 mi

Pressure: 30.09 "Hg

Humidity: 100%

Dew Point: 50 °F

Location of San Michele al TagliamentoLocation

Past Weather in San Michele al Tagliamento — Graph

°F

San Michele al Tagliamento Temperature Yesterday

Maximum temperature yesterday: 72 °F (at 3:20 pm)
Minimum temperature yesterday: 54 °F (at 10:50 pm)
Average temperature yesterday: 63 °F

High & Low Weather Summary for the Past Weeks

 TemperatureHumidityPressure
High73 °F (Oct 2, 10:20 am)100% (Oct 2, 11:20 pm)30.24 "Hg (Oct 2, 11:20 pm)
Low41 °F (Oct 4, 5:50 am)35% (Oct 3, 4:20 pm)29.62 "Hg (Oct 2, 6:50 am)
Average59 °F81%30.01 "Hg
* Reported Oct 2 1:20 am — Oct 17 1:20 am, San Michele al Tagliamento. Weather by CustomWeather, © 2019

Note: Actual official high and low records may vary slightly from our data, if they occured in-between our weather recording intervals... More about our weather records

Advertising

San Michele al Tagliamento Weather History for the Previous 24 Hours

Scroll right to see more
 ConditionsComfort  
Time TempWeatherWind HumidityBarometerVisibility
1:20 am
Thu, Oct 17
50 °FCool.1 mph100%30.09 "HgN/A
12:50 am52 °FCool.1 mph100%30.09 "HgN/A
12:20 am52 °FCool.5 mph100%30.09 "HgN/A
11:50 pm
Wed, Oct 16
54 °FFog.2 mph100%30.09 "Hg6 mi
11:20 pm54 °FFog.2 mph100%30.09 "Hg6 mi
10:50 pm54 °FFog.1 mph100%30.09 "Hg5 mi
10:20 pm57 °FClear.5 mph94%30.07 "Hg10 mi
9:50 pm55 °FClear.3 mph100%30.07 "Hg10 mi
9:20 pm57 °FClear.6 mph94%30.07 "Hg10 mi
8:50 pm57 °FFog.5 mph100%30.07 "Hg6 mi
8:20 pm57 °FFog.2 mph100%30.07 "Hg6 mi
7:50 pm57 °FPassing clouds.3 mph94%30.07 "HgN/A
7:20 pm59 °FClear.1 mph94%30.04 "Hg10 mi
6:50 pm61 °FClear.1 mph88%30.04 "Hg10 mi
6:20 pm64 °FClear.3 mph83%30.04 "Hg10 mi
5:50 pm66 °FSunny.6 mph78%30.01 "Hg10 mi
5:20 pm66 °FSunny.5 mph73%30.01 "Hg10 mi
4:50 pm68 °FPassing clouds.7 mph69%30.01 "HgN/A
4:20 pm70 °FPassing clouds.8 mph64%30.01 "HgN/A
3:50 pm70 °FSunny.8 mph57%30.01 "Hg10 mi
3:20 pm72 °FPassing clouds.6 mph53%30.01 "HgN/A
2:50 pm70 °FPassing clouds.8 mph60%30.01 "HgN/A
2:20 pm70 °FPassing clouds.5 mph64%30.01 "HgN/A
1:50 pm70 °FPassing clouds.7 mph64%30.01 "HgN/A
1:20 pm70 °FPassing clouds.8 mph64%30.01 "HgN/A
12:50 pm70 °FPassing clouds.6 mph64%30.01 "HgN/A
12:20 pm68 °FPassing clouds.7 mph73%30.01 "HgN/A
11:50 am68 °FPassing clouds.8 mph73%30.01 "HgN/A
11:20 am68 °FPassing clouds.7 mph73%29.98 "HgN/A
10:50 am66 °FPassing clouds.6 mph78%29.98 "HgN/A
10:20 am66 °FPassing clouds.5 mph83%29.98 "HgN/A
9:50 am64 °FPassing clouds.3 mph88%29.98 "HgN/A
9:20 am63 °FScattered clouds.3 mph88%29.98 "HgN/A
8:50 am61 °FBroken clouds.3 mph100%29.95 "HgN/A
8:20 am57 °FScattered clouds.3 mph100%29.95 "HgN/A
7:50 am57 °FPassing clouds.2 mph100%29.92 "HgN/A
7:20 am57 °FFog.2 mph100%29.92 "HgN/A
6:50 am55 °FFog.1 mph94%29.92 "Hg1 mi
6:20 am57 °FFog.No wind100%29.89 "HgN/A
5:50 am61 °FCool.1 mph100%29.89 "HgN/A
5:20 am63 °FMild.3 mph100%29.89 "HgN/A
4:50 am64 °FPassing clouds.2 mph100%29.89 "HgN/A
4:20 am64 °FPassing clouds.5 mph100%29.89 "HgN/A
3:50 am64 °FLight rain. Partly cloudy.5 mph100%29.89 "HgN/A
3:20 am64 °FRain. Passing clouds.8 mph100%29.89 "HgN/A
Weather by CustomWeather, © 2019

See weather overview